Location: Firdgum
(53.2488°N, 5.5615°E)
Time: 03:31:20
(UTC+00:00)

Cosmos 1140 Rocket - Pass Details

Date: 08 December 2019
Orbit: 744 x 768 km, 74.1° (Epoch: 17 January)

Event Time Altitude Azimuth Distance (km) Brightness Sun altitude
Exits shadow 04:32:41 69° 189° (S) 815 3.5 -26.4°
Drops below altitude 10° 04:37:19 10° 162° (SSE) 2,293 6.2 -25.7°
Sets 04:39:41 0° 161° (SSE) 3,218 7.0 -25.3°
